Temperature
14 14 14 13 13 13 13 13 13 13 13 13 13 13 14 14 14 14 14 14 14 15 15 15 15 15 15 16 16 16 16 15 15 15 16 16 16 16 16 16 16 17 16
13 14 14 13 13 13 13 13 13 13 13 13 13 13 13 14 14 14 14 14 14 14 14 14 14 15 15 15 16 16 16 15 15 15 15 16 16 16 16 16 16 16 16
13 13 13 13 13 12 12 12 12 12 12 12 13 13 13 13 13 13 14 14 14 14 14 14 14 14 14 15 15 15 15 15 15 15 15 15 16 16 16 16 16 16 16
13 13 13 13 12 12 12 12 12 12 12 12 12 13 13 13 13 13 13 14 14 14 14 14 14 14 14 14 15 15 15 15 15 15 15 15 15 15 15 15 15 15 15
12 12 12 12 12 12 11 12 12 12 12 12 12 12 12 13 13 13 13 13 13 13 14 14 13 13 14 14 14 14 14 14 14 14 14 14 14 14 14 15 15 15 15
11 11 11 12 12 11 11 11 11 11 11 12 12 12 12 12 12 13 13 13 13 13 13 13 13 13 13 13 13 13 14 13 13 13 14 14 14 14 14 14 14 14 15
10 10 10 11 11 11 10 11 11 11 11 11 11 11 12 12 12 12 12 12 13 13 13 13 13 13 13 13 13 13 13 13 13 13 13 14 14 14 14 14 14 14 14
8 9 9 10 10 10 10 10 10 11 11 11 10 10 11 11 12 12 12 12 12 12 12 12 12 12 12 12 12 12 13 13 13 13 13 13 13 13 13 14 14 14 14
7 8 9 9 10 10 10 10 10 10 10 10 10 10 10 11 11 11 12 12 12 12 12 12 12 12 12 12 12 12 12 12 12 12 13 13 13 13 13 13 13 14 14
6 7 8 8 9 9 9 9 9 10 10 10 10 10 10 10 10 10 10 10 11 11 11 11 12 12 12 12 12 12 12 12 12 12 12 12 13 13 13 12 13 13 13
5 6 6 7 8 8 9 9 9 9 9 9 9 9 9 9 9 10 9 9 10 10 10 11 11 11 11 11 11 11 11 11 11 11 12 12 12 12 12 12 12 12 12
4 4 5 6 6 7 8 9 9 9 9 9 9 9 9 9 9 9 9 9 9 9 9 9 9 10 10 10 10 10 10 10 11 11 11 11 11 11 11 11 11 11 11
3 4 4 5 5 6 6 7 8 8 8 8 8 8 8 8 8 8 8 9 9 9 9 9 9 9 9 9 9 9 9 10 10 10 10 10 10 10 10 10 10 10 11
1 2 3 4 5 5 5 6 7 7 7 7 7 7 7 7 7 8 8 8 8 8 8 8 8 9 9 9 9 9 9 9 9 9 9 9 9 9 9 9 9 10 10
-2 -0 2 3 4 4 5 6 7 7 7 7 7 7 7 7 7 7 7 7 7 7 7 8 8 8 8 8 8 8 8 7 8 8 8 8 8 8 8 8 8 8 9
-4 -3 -1 1 2 3 4 5 6 6 7 7 7 6 6 6 6 6 6 6 6 7 7 7 7 8 8 7 7 7 7 7 7 7 7 7 7 7 7 7 8 8 8
-3 -2 -1 0 2 2 3 4 4 5 6 6 6 6 6 5 5 5 6 6 6 6 6 6 7 7 7 7 7 7 7 7 7 7 7 6 6 6 7 7 7 7 7
-3 -2 -1 0 1 1 2 3 3 4 4 5 5 5 5 4 3 3 4 5 5 5 6 6 6 6 7 7 7 7 7 7 7 6 6 6 6 6 6 6 6 6 7
-3 -2 -1 -1 -0 0 1 2 2 3 3 3 4 4 3 2 1 2 3 4 4 5 5 5 5 6 6 6 6 6 6 6 6 6 6 6 5 5 5 5 5 6 6
-4 -3 -2 -2 -1 -1 -0 0 0 1 1 1 1 1 1 0 0 1 2 2 3 3 4 4 5 5 5 5 6 6 5 5 5 5 5 5 5 5 5 5 5 5 5
-5 -5 -4 -4 -3 -3 -3 -2 -1 -1 -1 -1 -1 -1 -1 -1 -1 -0 0 1 1 2 2 3 4 4 4 4 5 5 5 4 4 4 4 4 4 4 4 4 4 4 4
-6 -6 -5 -5 -5 -5 -5 -4 -4 -4 -4 -3 -3 -3 -2 -2 -2 -2 -1 -1 -0 -0 1 1 2 2 3 3 3 4 4 4 3 3 3 3 3 3 3 3 3 3 3
-7 -7 -6 -6 -6 -6 -6 -6 -5 -5 -6 -6 -6 -5 -5 -4 -4 -3 -3 -2 -2 -2 -2 -1 -0 0 1 1 1 2 2 3 2 2 2 2 2 2 2 2 2 3 2
-8 -8 -8 -7 -7 -7 -7 -7 -7 -7 -7 -7 -7 -7 -6 -6 -5 -5 -4 -4 -4 -4 -4 -3 -2 -2 -2 -1 -1 -0 0 1 1 1 1 1 1 1 1 1 1 2 1
-9 -8 -8 -8 -8 -8 -8 -8 -8 -8 -8 -8 -8 -8 -8 -8 -8 -6 -6 -6 -5 -5 -5 -5 -4 -4 -4 -3 -2 -2 -2 -1 -1 -1 -1 -1 -0 0 0 -0 0 1 0
-10 -10 -10 -10 -10 -9 -9 -9 -9 -9 -9 -9 -9 -9 -9 -9 -9 -8 -7 -7 -6 -6 -6 -6 -6 -6 -5 -5 -5 -4 -4 -3 -3 -3 -3 -3 -2 -1 -1 -0 -0 -0 -0
Wind_Speed
4 4 3 4 5 5 4 3 4 6 7 7 9 8 8 9 11 12 12 19 22 20 20 21 21 20 19 19 18 17 16 15 14 12 11 10 9 8 7 7 7 8 9
3 4 4 4 3 5 5 5 6 6 6 6 8 9 8 8 10 13 14 18 23 23 22 22 22 22 21 20 20 19 18 17 16 13 11 10 9 9 8 8 8 9 9
4 3 4 4 5 6 6 5 5 4 5 5 7 8 7 7 7 10 14 15 18 22 23 23 23 23 23 22 22 21 20 19 17 15 13 11 9 8 8 8 9 9 9
6 3 4 5 5 6 4 6 6 5 5 5 5 6 6 6 9 8 10 12 14 15 19 21 23 24 24 23 23 22 21 20 17 15 13 11 9 8 8 8 9 9 10
8 4 4 5 6 5 6 7 7 6 5 5 5 5 5 5 7 8 8 9 11 13 14 18 21 22 24 24 23 23 23 21 19 16 13 11 9 8 7 8 9 10 10
13 5 5 6 6 5 5 5 7 6 5 4 4 4 5 5 5 6 7 6 7 11 13 13 15 18 20 22 23 23 22 21 19 17 14 12 10 9 8 8 8 9 10
19 10 6 6 5 5 6 6 5 6 5 3 2 3 4 4 4 5 5 5 7 8 11 12 12 13 13 18 21 21 21 20 19 17 15 13 11 9 9 9 9 9 9
19 14 12 8 6 5 6 5 5 4 4 4 4 2 3 4 3 2 3 4 5 4 6 8 10 11 11 10 12 17 19 20 19 16 14 13 12 11 10 9 9 9 9
20 16 15 10 7 6 6 6 6 6 5 3 4 4 3 5 3 3 1 1 3 4 5 6 7 9 10 10 9 10 12 12 13 13 12 12 12 12 12 9 7 8 8
19 19 16 13 8 6 6 6 5 5 5 4 2 2 3 3 2 2 3 3 2 1 3 4 6 6 9 10 11 13 13 11 10 9 10 10 10 10 11 9 3 0 3
16 19 17 14 10 7 7 7 5 5 4 5 4 3 2 2 2 2 1 3 3 3 1 3 5 5 7 9 10 13 15 12 10 9 8 7 6 5 4 2 2 2 4
14 17 18 17 13 9 7 7 7 7 5 5 4 4 4 3 3 3 2 1 1 3 3 1 3 5 6 9 12 16 15 13 11 9 7 6 4 4 3 2 2 2 3
15 16 17 17 14 11 8 6 6 6 6 5 5 4 4 4 4 4 4 3 2 2 2 2 0 3 5 9 11 16 14 14 12 10 9 7 6 4 3 1 1 2 4
16 19 19 18 16 12 8 6 5 6 6 5 3 3 3 3 4 4 5 5 2 1 2 2 1 3 4 8 12 14 13 14 13 12 10 8 7 5 4 3 2 3 4
18 20 20 19 15 9 7 7 5 7 8 7 6 4 1 1 2 3 3 4 5 4 4 3 2 2 4 7 13 13 12 14 15 13 11 10 8 6 5 4 4 4 5
20 21 19 17 14 8 5 5 5 6 7 6 6 6 4 3 2 0 2 3 4 5 5 5 5 3 4 4 13 14 14 17 17 14 12 11 9 7 5 3 3 4 5
20 19 17 15 12 9 5 4 4 6 8 6 6 7 6 6 5 4 1 2 3 4 5 5 3 2 4 5 5 9 12 13 13 14 14 12 9 7 5 2 1 4 5
19 17 13 10 6 2 2 4 4 5 7 7 7 8 7 6 4 4 2 2 1 3 5 6 4 3 4 5 6 7 5 9 10 16 17 14 10 8 5 2 2 3 3
20 17 11 10 9 8 8 8 8 9 9 8 8 9 8 6 2 1 4 4 3 2 2 5 4 2 1 1 4 4 4 3 5 12 17 14 11 9 7 5 3 1 2
19 18 14 13 13 12 12 11 11 11 11 10 10 10 8 5 3 4 5 5 4 3 2 2 2 2 2 2 2 4 4 3 3 3 6 10 11 11 11 10 9 6 4
17 17 17 16 14 12 13 14 14 13 12 12 11 10 9 10 10 7 6 5 5 4 3 2 2 2 2 3 2 1 3 4 4 4 3 3 4 5 6 7 6 6 6
14 14 15 15 14 12 18 19 14 11 10 10 9 8 8 10 11 12 12 11 9 5 3 2 2 2 3 3 3 2 3 3 3 3 2 2 2 3 3 6 10 14 15
13 10 11 12 13 15 17 16 14 9 8 7 7 7 7 8 9 7 8 9 10 11 10 5 4 4 3 4 3 3 3 3 3 2 1 2 3 3 4 9 16 17 16
12 9 8 9 10 14 16 13 12 9 8 8 8 8 8 8 8 8 6 8 9 9 9 6 5 4 3 3 3 2 2 3 5 5 4 2 4 3 4 5 14 15 15
10 10 8 7 9 11 15 12 11 6 6 7 7 8 7 7 10 10 7 7 8 7 10 13 14 13 11 8 3 2 2 3 3 4 6 3 2 3 3 2 7 13 13
12 11 9 8 9 9 13 12 10 5 5 5 6 7 9 7 9 10 6 6 7 6 7 9 12 14 13 14 16 9 5 3 3 3 4 3 2 3 3 3 3 6 8
Wind_Direction
264 260 243 232 227 229 230 232 232 240 240 240 241 236 231 228 230 226 224 217 207 205 206 203 199 198 199 201 201 200 199 198 196 197 201 205 213 225 235 241 248 252 254
280 276 268 258 246 240 236 232 236 236 238 238 242 239 235 230 230 226 219 214 209 205 208 208 206 204 203 204 204 203 201 200 200 201 205 209 216 229 241 250 258 262 263
296 279 269 264 257 254 251 247 248 243 250 254 255 250 239 225 218 216 211 206 207 209 209 212 211 210 209 207 205 203 201 200 198 199 201 206 215 230 245 256 263 268 266
273 251 252 257 258 258 249 248 246 246 246 252 260 259 249 232 218 211 204 201 201 204 210 214 214 214 214 213 210 207 202 198 196 195 197 202 211 227 248 268 276 278 274
279 240 247 259 264 258 251 249 241 225 235 249 258 260 256 244 230 219 207 201 200 201 203 211 215 218 217 218 217 212 205 199 193 193 196 198 206 221 242 263 277 282 282
302 267 251 267 270 263 262 251 241 225 220 233 254 267 261 250 243 232 221 208 202 204 203 205 212 223 222 219 219 216 209 200 194 193 195 200 208 221 238 255 270 277 280
327 304 266 254 251 248 253 249 238 229 224 202 217 278 292 269 245 240 231 218 213 207 201 203 205 211 219 219 214 214 212 206 200 197 198 204 211 222 235 248 261 270 276
330 323 294 262 240 239 249 243 228 217 209 181 182 211 292 316 304 279 242 226 221 208 204 197 196 199 200 203 209 210 209 207 204 202 205 212 221 229 235 241 251 261 269
326 324 309 278 243 220 224 224 215 195 195 194 180 172 194 239 298 330 340 229 198 194 194 183 181 182 178 178 180 181 178 189 198 205 213 222 228 233 234 235 247 259 267
325 323 319 297 261 223 214 218 205 190 172 178 167 160 172 174 189 318 344 4 0 150 160 153 152 151 153 153 157 156 147 151 169 186 201 211 220 226 229 226 201 20 340
320 319 317 310 285 249 216 206 190 176 171 170 166 157 135 108 128 141 284 339 354 358 44 137 136 136 142 146 150 153 149 150 159 169 177 186 195 203 208 161 68 345 318
314 311 314 312 299 275 233 202 188 173 169 166 167 159 155 157 171 155 170 232 296 319 340 35 132 136 142 149 156 154 149 147 151 153 152 148 144 143 122 79 40 1 338
312 309 310 306 295 276 254 207 174 158 155 161 171 174 168 172 158 151 151 175 223 302 324 319 219 141 141 147 154 155 151 147 147 146 141 138 134 125 109 74 15 2 10
308 306 305 300 289 265 240 211 161 142 129 124 136 153 165 174 168 165 159 151 158 284 317 267 281 187 158 159 164 157 155 152 148 146 145 143 139 130 110 90 58 20 3
308 302 300 297 288 262 213 187 153 140 124 110 97 85 102 155 176 179 163 156 156 184 234 259 252 220 180 173 169 160 161 164 158 155 150 144 138 130 111 83 53 28 12
308 302 295 291 280 257 196 154 135 121 108 110 105 84 56 29 22 25 195 184 170 170 208 233 231 230 188 183 181 168 169 168 166 164 159 154 150 141 123 88 47 21 9
311 305 298 292 273 250 214 159 144 129 115 106 99 94 71 44 19 357 312 189 187 172 199 241 245 241 187 182 173 178 174 165 173 177 172 169 166 156 144 127 20 6 1
322 315 313 318 304 258 154 131 133 114 108 101 91 87 74 63 29 348 8 58 136 193 191 214 228 209 203 193 175 177 176 174 176 180 176 177 174 170 170 193 285 317 327
342 339 344 6 20 33 54 67 73 71 71 73 76 83 80 90 103 50 48 48 36 41 190 196 204 182 145 121 143 143 138 142 174 173 171 170 167 164 150 126 100 41 302
357 359 13 30 35 36 40 49 59 63 63 60 60 67 73 87 102 87 63 38 31 34 39 133 136 109 72 15 112 136 115 82 60 70 125 132 128 112 99 92 85 70 36
4 8 18 26 34 42 44 44 44 46 47 47 44 43 47 50 58 68 74 56 39 31 28 55 88 95 73 54 72 98 133 115 61 34 47 60 81 73 61 51 53 49 48
2 10 16 19 25 37 51 56 58 53 50 46 40 33 39 35 32 37 49 56 54 47 31 32 43 77 70 37 24 66 114 138 121 38 62 33 40 67 43 41 64 73 72
354 7 14 15 15 23 42 51 61 68 65 57 47 38 36 28 35 24 33 54 55 60 58 50 46 44 54 22 23 55 62 80 85 15 45 87 33 56 39 63 76 67 58
352 356 11 11 11 11 27 47 61 68 70 64 54 43 36 16 27 31 44 71 67 59 64 65 79 67 56 36 35 43 42 86 87 30 21 82 27 10 9 44 57 51 43
351 354 6 8 7 1 16 45 58 51 57 52 49 43 36 11 37 45 49 68 64 45 53 67 73 76 75 74 82 65 56 97 96 39 12 63 27 345 337 351 32 32 27
355 359 11 11 6 358 11 34 49 42 50 57 40 20 19 29 53 58 41 52 67 52 56 74 70 63 57 55 55 49 41 70 95 92 11 31 29 0 339 328 347 11 21
Height
1500 1499 1498 1498 1498 1497 1497 1496 1495 1495 1495 1494 1494 1494 1495 1496 1497 1499 1500 1502 1504 1507 1509 1510 1512 1514 1515 1516 1518 1519 1520 1521 1522 1524 1525 1527 1528 1529 1530 1531 1532 1532 1533
1498 1496 1495 1494 1494 1493 1492 1492 1491 1490 1490 1490 1490 1490 1490 1491 1492 1494 1495 1497 1500 1502 1504 1506 1507 1509 1511 1513 1514 1515 1517 1518 1520 1521 1523 1524 1526 1527 1528 1529 1530 1530 1530
1496 1494 1492 1491 1489 1488 1487 1487 1486 1485 1485 1485 1485 1485 1485 1486 1486 1488 1490 1492 1494 1496 1498 1500 1502 1504 1506 1508 1510 1511 1513 1515 1516 1518 1520 1522 1523 1524 1525 1526 1527 1527 1528
1492 1490 1488 1486 1485 1484 1482 1481 1480 1480 1480 1480 1480 1480 1480 1481 1481 1482 1484 1485 1488 1490 1492 1494 1496 1498 1501 1503 1505 1507 1509 1511 1513 1515 1516 1518 1520 1521 1522 1523 1524 1525 1525
1487 1485 1483 1482 1480 1478 1477 1476 1475 1475 1474 1474 1474 1474 1475 1475 1475 1476 1478 1479 1481 1483 1486 1488 1491 1493 1495 1498 1501 1503 1505 1507 1509 1511 1513 1515 1516 1518 1519 1520 1521 1522 1522
1481 1480 1478 1476 1475 1472 1471 1471 1470 1470 1469 1469 1469 1469 1469 1469 1469 1470 1472 1473 1474 1476 1479 1481 1484 1487 1490 1492 1495 1498 1500 1502 1504 1507 1509 1511 1512 1514 1515 1516 1517 1518 1519
1472 1471 1471 1470 1469 1467 1466 1465 1464 1464 1464 1464 1463 1463 1463 1464 1464 1465 1466 1467 1469 1470 1472 1475 1477 1480 1484 1486 1489 1492 1495 1497 1499 1502 1504 1507 1508 1510 1511 1513 1514 1515 1516
1466 1462 1461 1462 1461 1460 1459 1459 1458 1458 1459 1459 1459 1459 1458 1459 1458 1459 1460 1461 1463 1464 1466 1468 1471 1474 1477 1480 1483 1486 1489 1492 1495 1497 1500 1502 1504 1506 1507 1509 1510 1511 1512
1459 1456 1453 1453 1453 1452 1452 1452 1452 1453 1453 1454 1454 1455 1455 1454 1454 1454 1455 1456 1457 1459 1460 1462 1464 1467 1471 1474 1478 1481 1484 1487 1490 1492 1495 1497 1499 1501 1502 1504 1506 1507 1508
1452 1450 1447 1445 1446 1446 1445 1446 1446 1446 1447 1448 1449 1450 1451 1451 1452 1451 1451 1452 1453 1454 1456 1457 1459 1462 1465 1468 1472 1476 1479 1482 1485 1487 1490 1492 1494 1496 1498 1499 1500 1502 1504
1447 1444 1442 1439 1439 1440 1440 1439 1439 1440 1441 1443 1444 1445 1446 1448 1448 1449 1449 1450 1451 1452 1453 1453 1455 1457 1460 1464 1467 1471 1474 1477 1480 1483 1485 1488 1490 1492 1493 1495 1496 1497 1499
1440 1437 1435 1433 1432 1432 1433 1433 1433 1434 1435 1437 1439 1439 1441 1443 1444 1446 1446 1448 1449 1451 1452 1452 1453 1455 1458 1461 1465 1468 1470 1473 1476 1479 1481 1483 1485 1487 1489 1490 1492 1493 1494
1433 1430 1428 1426 1425 1425 1426 1426 1426 1427 1429 1431 1433 1434 1436 1439 1441 1442 1443 1445 1447 1449 1450 1451 1452 1454 1456 1459 1462 1465 1467 1469 1472 1475 1477 1479 1481 1483 1485 1486 1487 1489 1490
1426 1423 1420 1418 1418 1418 1418 1420 1420 1421 1423 1425 1427 1430 1432 1435 1437 1438 1440 1442 1444 1446 1447 1449 1450 1452 1454 1457 1459 1462 1464 1466 1469 1471 1473 1475 1477 1479 1480 1482 1483 1484 1485
1420 1415 1412 1410 1410 1410 1411 1413 1414 1415 1417 1419 1422 1425 1428 1431 1433 1435 1436 1438 1441 1442 1444 1446 1447 1449 1451 1453 1456 1458 1461 1463 1466 1468 1470 1472 1474 1475 1476 1478 1479 1479 1481
1415 1409 1405 1403 1403 1404 1405 1407 1408 1409 1411 1414 1416 1419 1423 1426 1429 1431 1433 1435 1437 1439 1440 1442 1445 1446 1448 1450 1453 1455 1458 1460 1463 1465 1467 1469 1470 1471 1472 1474 1475 1476 1476
1411 1405 1400 1397 1396 1397 1399 1401 1403 1405 1407 1410 1411 1414 1417 1420 1424 1428 1429 1430 1432 1434 1436 1439 1441 1443 1444 1447 1449 1452 1455 1457 1459 1462 1464 1466 1468 1468 1469 1470 1471 1472 1473
1408 1402 1397 1393 1392 1392 1394 1396 1398 1400 1402 1405 1407 1409 1411 1415 1421 1424 1425 1426 1427 1429 1432 1434 1437 1439 1441 1443 1446 1448 1451 1454 1456 1459 1461 1463 1465 1465 1466 1467 1468 1469 1471
1407 1400 1396 1392 1391 1390 1391 1392 1394 1395 1397 1400 1402 1404 1407 1411 1416 1418 1419 1420 1421 1424 1426 1429 1432 1434 1436 1438 1441 1444 1447 1450 1452 1455 1457 1459 1461 1462 1462 1463 1465 1467 1468
1409 1402 1397 1394 1392 1390 1389 1390 1391 1393 1395 1397 1399 1401 1404 1408 1410 1411 1412 1414 1416 1418 1421 1423 1426 1428 1430 1433 1436 1439 1442 1445 1448 1450 1452 1454 1456 1457 1458 1460 1461 1463 1464
1414 1407 1402 1398 1396 1393 1391 1390 1391 1392 1394 1395 1397 1399 1402 1404 1405 1406 1407 1409 1411 1413 1415 1417 1420 1422 1425 1427 1430 1433 1436 1439 1441 1442 1445 1448 1451 1453 1455 1456 1458 1458 1459
1418 1413 1408 1404 1401 1399 1397 1394 1394 1395 1395 1396 1397 1398 1399 1401 1402 1403 1404 1404 1406 1408 1410 1412 1414 1417 1419 1422 1425 1427 1430 1434 1435 1438 1440 1442 1446 1448 1450 1452 1452 1453 1452
1420 1416 1412 1408 1405 1403 1401 1399 1398 1397 1397 1398 1398 1398 1398 1399 1400 1401 1401 1402 1404 1405 1407 1409 1410 1413 1415 1417 1420 1423 1425 1427 1430 1432 1436 1438 1441 1443 1446 1446 1446 1446 1446
1421 1417 1414 1411 1408 1406 1404 1402 1400 1399 1399 1399 1399 1399 1399 1399 1399 1400 1401 1402 1403 1404 1405 1406 1408 1409 1411 1413 1415 1418 1421 1423 1425 1428 1431 1434 1436 1438 1440 1439 1440 1440 1441
1422 1418 1415 1412 1410 1408 1407 1404 1402 1401 1401 1401 1400 1400 1400 1400 1400 1399 1400 1401 1401 1402 1403 1404 1405 1406 1408 1410 1412 1415 1417 1419 1420 1423 1426 1428 1430 1433 1434 1434 1434 1434 1435
1425 1420 1417 1414 1412 1410 1409 1407 1405 1404 1403 1403 1403 1403 1402 1402 1401 1399 1399 1399 1400 1400 1402 1403 1404 1405 1407 1409 1410 1412 1414 1415 1416 1419 1421 1424 1425 1427 1428 1428 1428 1428 1429